2023/02/28 00:00:00,105.6,-0.1
2023/02/28 00:10:00,105.6, 0.0
2023/02/28 00:20:00,105.6,-0.3
2023/02/28 00:30:00,105.6,-0.4
2023/02/28 00:40:00,105.5,-0.2
2023/02/28 00:50:00,105.5,-0.6
2023/02/28 01:00:00,105.5,-0.7
2023/02/28 01:10:00,105.5,-0.6
2023/02/28 01:20:00,105.5,-0.4
2023/02/28 01:30:00,105.5,-0.3
2023/02/28 01:40:00,105.5,-0.6
2023/02/28 01:50:00,105.6,-0.6
2023/02/28 02:00:00,105.5,-0.6
2023/02/28 02:10:00,105.5,-0.4
2023/02/28 02:20:00,105.6,-0.8
2023/02/28 02:30:00,105.6,-1.0
2023/02/28 02:40:00,105.6,-1.0
2023/02/28 02:50:00,105.6,-0.8
2023/02/28 03:00:00,105.6,-0.6
2023/02/28 03:10:00,105.6,-1.2
2023/02/28 03:20:00,105.6,-1.1
2023/02/28 03:30:00,105.6,-1.2
2023/02/28 03:40:00,105.6,-1.2
2023/02/28 03:50:00,105.6,-1.2
2023/02/28 04:00:00,105.6,-1.3
2023/02/28 04:10:00,105.6,-1.4
2023/02/28 04:20:00,105.7,-1.3
2023/02/28 04:30:00,105.6,-1.3
2023/02/28 04:40:00,105.6,-1.6
2023/02/28 04:50:00,105.6,-1.8
2023/02/28 05:00:00,105.6,-1.8
2023/02/28 05:10:00,105.6,-1.4
2023/02/28 05:20:00,105.6,-1.7
2023/02/28 05:30:00,105.6,-1.6
2023/02/28 05:40:00,105.6,-1.7
2023/02/28 05:50:00,105.6,-1.9
2023/02/28 06:00:00,105.6,-1.8
2023/02/28 06:10:00,105.5,-2.1
2023/02/28 06:20:00,105.6,-2.0
2023/02/28 06:30:00,105.6,-2.0
2023/02/28 06:40:00,105.6,-2.3
2023/02/28 06:50:00,105.6,-2.0
2023/02/28 07:00:00,105.6,-2.1
2023/02/28 07:10:00,105.6,-1.7
2023/02/28 07:20:00,105.6,-1.3
2023/02/28 07:30:00,105.6,-1.1
2023/02/28 07:40:00,105.6,-1.5
2023/02/28 07:50:00,105.7,-0.2
2023/02/28 08:00:00,105.7, 0.2
2023/02/28 08:10:00,105.6, 0.7
2023/02/28 08:20:00,105.6, 1.4
2023/02/28 08:30:00,105.6, 2.4
2023/02/28 08:40:00,105.7, 2.8
2023/02/28 08:50:00,105.7, 4.0
2023/02/28 09:00:00,105.7, 4.4
2023/02/28 09:10:00,105.7, 4.7
2023/02/28 09:20:00,105.7, 5.3
2023/02/28 09:30:00,105.7, 5.6
2023/02/28 09:40:00,105.7, 6.6
2023/02/28 09:50:00,105.6, 7.1
2023/02/28 10:00:00,105.6, 7.1
2023/02/28 10:10:00,105.1, 7.2
2023/02/28 10:20:00,105.0, 7.1
2023/02/28 10:30:00,104.9, 7.8
2023/02/28 10:40:00,104.8, 8.5
2023/02/28 10:50:00,104.1, 9.0
2023/02/28 11:00:00,104.1, 9.3
2023/02/28 11:10:00,104.1,10.2
2023/02/28 11:20:00,104.1, 9.7
2023/02/28 11:30:00,102.6,10.2
2023/02/28 11:40:00,103.1, 9.7
2023/02/28 11:50:00,103.6, 9.4
2023/02/28 12:00:00,103.6, 9.3
2023/02/28 12:10:00,103.7, 8.5
2023/02/28 12:20:00,103.7, 8.1
2023/02/28 12:30:00,103.6, 7.6
2023/02/28 12:40:00,103.6, 7.0
2023/02/28 12:50:00,103.6, 7.1
2023/02/28 13:00:00,103.5, 6.8
2023/02/28 13:10:00,103.5, 6.5
2023/02/28 13:20:00,103.4, 7.1
2023/02/28 13:30:00,103.2, 6.9
2023/02/28 13:40:00,103.2, 6.9
2023/02/28 13:50:00,103.2, 7.1
2023/02/28 14:00:00,103.2, 7.1
2023/02/28 14:10:00,103.0, 7.2
2023/02/28 14:20:00,102.9, 7.0
2023/02/28 14:30:00,102.7, 7.4
2023/02/28 14:40:00,102.4, 7.6
2023/02/28 14:50:00,102.4, 7.3
2023/02/28 15:00:00,102.4, 7.6
2023/02/28 15:10:00,102.5, 7.2
2023/02/28 15:20:00,102.6, 6.3
2023/02/28 15:30:00,102.7, 5.8
2023/02/28 15:40:00,102.7, 5.0
2023/02/28 15:50:00,102.8, 4.8
2023/02/28 16:00:00,102.8, 4.9
2023/02/28 16:10:00,102.8, 4.4
2023/02/28 16:20:00,102.8, 4.7
2023/02/28 16:30:00,102.8, 4.4
2023/02/28 16:40:00,102.8, 4.1
2023/02/28 16:50:00,102.9, 4.3
2023/02/28 17:00:00,102.9, 4.3
2023/02/28 17:10:00,102.8, 5.2
2023/02/28 17:20:00,102.9, 3.9
2023/02/28 17:30:00,102.9, 3.9
2023/02/28 17:40:00,103.0, 3.7
2023/02/28 17:50:00,103.0, 3.2
2023/02/28 18:00:00,103.0, 3.1
2023/02/28 18:10:00,102.9, 2.7
2023/02/28 18:20:00,103.0, 2.8
2023/02/28 18:30:00,103.0, 2.8
2023/02/28 18:40:00,103.0, 2.5
2023/02/28 18:50:00,103.0, 2.4
2023/02/28 19:00:00,103.0, 2.4
2023/02/28 19:10:00,103.0, 2.3
2023/02/28 19:20:00,103.0, 2.0
2023/02/28 19:30:00,102.9, 2.1
2023/02/28 19:40:00,103.0, 1.8
2023/02/28 19:50:00,103.0, 2.0
2023/02/28 20:00:00,103.0, 1.9
2023/02/28 20:10:00,102.9, 1.4
2023/02/28 20:20:00,102.9, 1.6
2023/02/28 20:30:00,102.9, 1.6
2023/02/28 20:40:00,102.9, 1.6
2023/02/28 20:50:00,102.9, 1.9
2023/02/28 21:00:00,102.9, 1.6
2023/02/28 21:10:00,102.9, 1.6
2023/02/28 21:20:00,102.9, 1.6
2023/02/28 21:30:00,102.9, 1.6
2023/02/28 21:40:00,102.9, 1.6
2023/02/28 21:50:00,102.9, 1.5
2023/02/28 22:00:00,102.9, 1.4
2023/02/28 22:10:00,102.9, 1.3
2023/02/28 22:20:00,102.9, 1.3
2023/02/28 22:30:00,102.9, 1.0
2023/02/28 22:40:00,102.9, 1.0
2023/02/28 22:50:00,102.9, 1.2
2023/02/28 23:00:00,102.8, 1.1
2023/02/28 23:10:00,102.8, 1.0
2023/02/28 23:20:00,102.8, 1.3
2023/02/28 23:30:00,102.8, 1.3
2023/02/28 23:40:00,102.8, 1.0
2023/02/28 23:50:00,102.9, 1.4
